Home > Weather > Pyatigorsk > Past weeks

Flag for Russia Past Weather in Pyatigorsk, Russia — Yesterday and Last 2 Weeks

Now
77 °F

Clear.


Feels Like: 79 °F
Forecast: 61 / 83 °F
Wind: 8 mph from South

Location: Mineral'Nye Vody

Current Time: Jul 28, 2016 at 7:29:35 PM

Latest Report: Jul 28, 2016 at 6:30 PM


Visibility: N/A

Pressure: 29.95 "Hg (28.18 "Hg at 533m altitude)

Humidity: 61%

Dew Point: 63 °F

Location of PyatigorskLocation

Past Weather in Pyatigorsk — Graph

°F

Pyatigorsk Temperature Yesterday

Maximum temperature yesterday: 88 °F (at 2:00 PM)
Minimum temperature yesterday: 59 °F (at 4:00 AM)
Average temperature yesterday: 74 °F

High & Low Weather Summary for the Past Weeks

 TemperatureHumidityPressure
High95 °F (Jul 17, 1:00 PM)94% (Jul 15, 4:30 AM)30.01 "Hg (Jul 15, 4:30 AM)
Low57 °F (Jul 15, 4:30 AM)25% (Jul 17, 1:00 PM)29.62 "Hg (Jul 18, 7:30 PM)
Average75 °F65%29.86 "Hg
* Reported Jul 13 7:00 PM — Jul 28 6:00 PM, Pyatigorsk, Weather by CustomWeather, © 2016

Note: Actual official high and low records may vary slightly from our data, if they occured in-between our weather recording intervals... More about our weather records

Advertising

Pyatigorsk Weather History for the Previous 24 Hours

Scroll right to see more
 ConditionsComfort  
Time TempWeatherWind HumidityBarometerVisibility
6:00 PM
Thu, Jul 28
79 °FScattered clouds.10 mph54%29.95 "HgN/A
5:30 PM81 °FScattered clouds.15 mph51%29.95 "HgN/A
5:00 PM82 °FScattered clouds.10 mph51%29.95 "HgN/A
4:30 PM84 °FScattered clouds.17 mph37%29.92 "HgN/A
4:00 PM82 °FScattered clouds.17 mph42%29.92 "HgN/A
3:30 PM84 °FScattered clouds.17 mph40%29.92 "HgN/A
3:00 PM84 °FScattered clouds.17 mph43%29.92 "HgN/A
2:30 PM82 °FScattered clouds.17 mph48%29.92 "HgN/A
2:00 PM82 °FPartly sunny.22 mph48%29.92 "HgN/A
1:30 PM82 °FPartly sunny.17 mph48%29.92 "HgN/A
1:00 PM86 °FPartly sunny.15 mph38%29.92 "HgN/A
12:30 PM86 °FPartly sunny.15 mph40%29.92 "HgN/A
12:00 PM82 °FPartly sunny.15 mph51%29.92 "HgN/A
11:30 AM82 °FPartly sunny.15 mph51%29.95 "HgN/A
11:00 AM81 °FScattered clouds.13 mph54%29.95 "HgN/A
10:30 AM81 °FPassing clouds.10 mph54%29.95 "HgN/A
10:00 AM81 °FClear.8 mph51%29.95 "HgN/A
9:30 AM79 °FClear.6 mph58%29.95 "HgN/A
9:00 AM77 °FClear.8 mph61%29.95 "HgN/A
8:30 AM75 °FClear.8 mph65%29.95 "HgN/A
8:00 AM73 °FClear.8 mph69%29.95 "HgN/A
7:30 AM72 °FClear.8 mph69%29.95 "Hg6 mi
7:00 AM70 °FClear.1 mph73%29.95 "HgN/A
6:30 AM64 °FClear.1 mph88%29.95 "Hg4 mi
6:00 AM63 °FClear.1 mph94%29.95 "Hg4 mi
5:00 AM61 °FFog.6 mph94%29.95 "Hg3 mi
4:30 AM61 °FFog.3 mph88%29.95 "Hg3 mi
4:00 AM61 °FFog.6 mph94%29.92 "Hg3 mi
3:30 AM63 °FClear.6 mph88%29.92 "Hg4 mi
3:00 AM61 °FClear.6 mph94%29.92 "HgN/A
2:30 AM63 °FClear.No wind88%29.92 "HgN/A
2:00 AM64 °FClear.3 mph83%29.92 "HgN/A
1:30 AM66 °FClear.1 mph83%29.92 "HgN/A
1:00 AM64 °FClear.1 mph83%29.92 "HgN/A
12:30 AM64 °FClear.1 mph88%29.92 "HgN/A
12:00 AM66 °FClear.3 mph83%29.92 "HgN/A
11:30 PM
Wed, Jul 27
68 °FClear.3 mph78%29.92 "HgN/A
11:00 PM70 °FClear.1 mph73%29.92 "HgN/A
10:30 PM73 °FClear.3 mph61%29.92 "HgN/A
10:00 PM73 °FClear.3 mph61%29.92 "HgN/A
9:30 PM75 °FClear.3 mph54%29.92 "HgN/A
9:00 PM75 °FPassing clouds.3 mph54%29.92 "HgN/A
8:30 PM77 °FPassing clouds.3 mph51%29.92 "HgN/A
8:00 PM77 °FThundershowers. Passing clouds.3 mph51%29.92 "HgN/A
7:30 PM79 °FThundershowers. Partly sunny.8 mph48%29.92 "HgN/A
7:00 PM81 °FPartly sunny.8 mph42%29.92 "HgN/A
Weather by CustomWeather, © 2016

See weather overviewHow to use our weather pages